Weather in Shatsk

Ukraine / Volyn Oblast     51°29′48″N   23°55′48″E
temp.,
°C
wind,
m/s
gust,
m/s
humid.,
%
clouds,
%
prec.,
mm/h
press.,
hPa
HPBL,
m
12 may, wed
wed1200:00+12se5148123 0.0 1015272
03:00+11se5148841 0.0 1015305
06:00+11ese5138819 0.0 1014252
09:00+16ese611750 0.0 1013452
12:00+20ese8106512 0.0 10121244
15:00+18se896034 0.1 10121448
18:00+17ese79570 0.0 10121533
21:00+13ese713680 0.0 1011558
13 may, thu
thu1300:00+9se512750 0.0 1011360
03:00+6ese410860 0.0 1009205
06:00+5ese4109112 0.0 1007216
09:00+11ese696937 0.0 1006553
12:00+15se67575 0.0 10041336
15:00+14se6869100 0.0 10021146
18:00+12se588397 0.2 1002620
21:00+11ese5129568 1.6 1001421
14 may, fri
fri1400:00+12sse499662 1.7 1001278
03:00+11sse4996100 1.7 1000284
06:00+11ssw4897100 0.1 1000455
09:00+11ssw51096100 1.3 1001543
12:00+13ssw5791100 0.6 1003724
15:00+14ssw6787100 1.0 1005643
18:00+14wsw5984100 0.4 1005660
21:00+12w5988100 0.7 1007440
15 may, sat
sat1500:00+10wsw389389 0.0 1008290
03:00+7wsw4119667 0.0 1009276
06:00+7wsw3796100 0.0 1009159
09:00+11wsw4883100 0.0 1009810
12:00+12wnw587698 0.0 1010688
15:00+17nw576041 0.1 10091532
18:00+17wnw356252 0.1 10091336
21:00+12n117976 0.1 100912
16 may, sun
sun1600:00+9ese34935 0.0 101049
03:00+9se33935 0.0 101138
06:00+9ese349310 0.0 101056
09:00+15ese467598 0.0 1010387
12:00+19ese5662100 0.0 10101150
15:00+20ese6753100 0.1 10081832
18:00+14sse61289100 0.8 1008522
21:00+13e41091100 1.3 1008284